P/2023 S1彗星

P/2023 S1

English version
Home page
Updated on January 26, 2025

---------------------------------------------------------------------

・ プロフィール

発見日 2023年9月20日
発見光度 20.3等
発見者 Pan-STARRS 2 telescope (Haleakala)

・ 写真集

・ 軌道要素

Epoch 2024 Oct. 17.0 TT = JDT 2460600.5
T 2025 Feb. 24.05146 TT                                 Rudenko
q   2.6197362            (2000.0)            P               Q
n   0.13066384     Peri.  180.27048     -0.73799486     -0.66612034
a   3.8462050      Node   317.29387     +0.61942112     -0.60525015
e   0.3188777      Incl.    9.15593     +0.26773319     -0.43583936
P   7.54
From 591 observations 2021 Aug. 29-2024 Nov. 14, mean residual 0".5.

・ 光度変化

        m1 = 5.0 + 5 logΔ + 20.0 log r

---------------------------------------------------------------------

軌道要素はM.P.E.C. 2024-V192に掲載されたものです。
光度グラフはComet for Windowsで作成したものです。

---------------------------------------------------------------------

Copyright(C) Seiichi Yoshida (comet@aerith.net). All rights reserved.